Flag for Czech Republic Weather past 2 weeks in Liberec, Czech Republic

33 °F

Light snow. Overcast.

Feels Like: 28 °F
Forecast: 28 / 35 °F
Wind: 5 mph from Southeast

Location: Liberec

Current Time: Nov 25, 2015 at 11:34:52 PM

Latest Report: Nov 25, 2015 at 9:00 PM

Visibility: 5 mi

Pressure: 29.78 "Hg

Humidity: 87%

Dew point: 29 °F

Location of LiberecLocation

Historic Weather in Liberec — Graph


Liberec temperature yesterday

Maximum temperature yesterday: 33 °F (at 1:00 PM)
Minimum temperature yesterday: 28 °F (at 12:00 AM)
Average temperature yesterday: 31 °F

Past Weeks' High & Low Weather Summary

High57 °F (Nov 10, 9:00 PM)99% (Nov 22, 4:00 AM)30.37 "Hg (Nov 22, 4:00 AM)
Low28 °F (Nov 24, 12:00 AM)52% (Nov 14, 11:00 AM)29.38 "Hg (Nov 21, 12:00 PM)
Average43 °F84%29.95 "Hg
* Reported Nov 10 9:00 PM — Nov 25 9:00 PM, Liberec, Weather by CustomWeather, © 2015

Note: Actual official high and low records may vary slightly from our data, if they occured in-between our weather recording intervals... More about our weather records


Liberec weather history for previous 24 hours

Time TempWeatherWind HumidityBarometerVisibility
9:00 PM
Wed, Nov 25
33 °FLight snow. Overcast.5 mph87%29.78 "Hg5 mi
8:00 PM33 °FFog.5 mph87%29.78 "Hg5 mi
7:00 PM32 °FFog.5 mph87%29.77 "Hg6 mi
6:00 PM32 °FFog.3 mph90%29.77 "Hg4 mi
5:00 PM32 °FFog.3 mph89%29.78 "Hg6 mi
4:00 PM32 °FFog.3 mph89%29.78 "Hg5 mi
3:00 PM31 °FLow clouds.3 mph88%29.78 "Hg4 mi
2:00 PM31 °FLight snow. Low clouds.3 mph88%29.79 "Hg4 mi
1:00 PM31 °FLight snow. Low clouds.3 mph84%29.80 "Hg2 mi
12:00 PM30 °FLight snow. Low clouds.5 mph86%29.81 "Hg4 mi
11:00 AM30 °FLight snow. Overcast.5 mph85%29.83 "Hg3 mi
10:00 AM30 °FLight snow. Overcast.7 mph82%29.84 "Hg2 mi
9:00 AM29 °FLight snow. Overcast.6 mph80%29.84 "Hg7 mi
7:00 AM29 °FOvercast.6 mph82%29.85 "Hg10 mi
5:00 AM29 °FChilly.6 mph83%29.88 "Hg11 mi
4:00 AM28 °FChilly.3 mph85%29.91 "Hg11 mi
3:00 AM28 °FChilly.7 mph85%29.93 "Hg12 mi
2:00 AM28 °FChilly.6 mph83%29.96 "Hg12 mi
1:00 AM29 °FChilly.6 mph80%30.00 "Hg12 mi
12:00 AM30 °FChilly.6 mph78%30.03 "Hg12 mi
Weather by CustomWeather, © 2015

See weather overviewHow to use our weather pages